Location: *
(48.7358°N, 0.3111°E)
Time: 02:02:27
(UTC+00:00)

Cosmos 1943 Rocket - Pass Details

Date: 22 October 2019
Orbit: 810 x 845 km, 71.0° (Epoch: 14 November)

Event Time Altitude Azimuth Distance (km) Brightness Sun altitude
Rises 04:43:27 0° 333° (NNW) 3,410 5.1 -18.1°
Reaches altitude 10° 04:45:57 10° 338° (NNW) 2,474 4.4 -17.6°
Maximum altitude 04:51:34 57° 57° (ENE) 988 2.8 -16.7°
Drops below altitude 10° 04:57:08 10° 136° (SE) 2,463 5.2 -15.8°
Sets 04:59:37 0° 140° (SE) 3,393 5.9 -15.4°
